Regional Weather Roundup
Issued by NWS

Home | Current Version | Previous Version | Graphics & Text | Print | Product List | Glossary On
Versions: 1 2 3 4 5 6 7 8 9 10 11 12 13 14 15 16 17 18 19 20 21 22 23 24 25 26 27 28 29 30 31 32 33 34 35 36 37 38 39 40 41 42 43 44 45 46 47 48 49 50
000
ASUS43 KLMK 271202
RWRKY
KENTUCKY REGIONAL WEATHER ROUNDUP
NATIONAL WEATHER SERVICE LOUISVILLE KY
800 AM EDT FRI MAR 27 2015

NOTE "FAIR" INDICATES FEW OR NO CLOUDS BELOW 12,000 FEET
WITH NO SIGNIFICANT WEATHER AND/OR OBSTRUCTIONS TO VISIBILITY.

KYZ001>023-026-027-061>063-070>075-271300-
WESTERN AND SOUTH CENTRAL KENTUCKY

CITY           SKY/WX    TMP DP  RH WIND       PRES   REMARKS
PADUCAH        CLOUDY    37  31  78 NW6       30.03R WCI  32
HENDERSON      MOCLDY    36  30  80 N7        30.02S WCI  30
OWENSBORO      PTCLDY    35  31  86 N7        30.03R WCI  29
HOPKINSVILLE   NOT AVBL
BOWLING GREEN  CLEAR     34  31  88 CALM      29.99S FOG
GLASGOW        NOT AVBL
$$

KYZ024-025-028>034-038-045-046-053-271300-
NORTH CENTRAL KENTUCKY

CITY           SKY/WX    TMP DP  RH WIND       PRES   REMARKS
LOUISVILLE/SDF PTCLDY    35  29  78 N9        30.00R WCI  28
LOUISVILLE/LOU CLEAR     33  29  85 N7        30.00R WCI  27
FORT KNOX      CLEAR     31  29  89 NW6       29.97R WCI  26
$$

KYZ035>037-039>044-047>052-055>060-089>105-271300-
NORTHEAST KENTUCKY

CITY           SKY/WX    TMP DP  RH WIND       PRES   REMARKS
LEXINGTON      CLOUDY    34  28  79 N8        29.96R WCI  27
COVINGTON      PTCLDY    31  24  75 N8        29.99R WCI  23
FRANKFORT      CLEAR     34  26  72 N6        29.96R WCI  29
$$

KYZ054-064>069-076>088-106>120-271300-
SOUTHEAST KENTUCKY

CITY           SKY/WX    TMP DP  RH WIND       PRES   REMARKS
JACKSON        CLOUDY    37  34  89 VRB5      29.90R FOG     WCI  33
LONDON         CLOUDY    38  31  76 N9        29.91R WCI  31
SOMERSET       NOT AVBL
MIDDLESBORO    NOT AVBL
MONTICELLO     MOSUNNY   35  32  89 NW8       29.97R WCI  28
$$



USA.gov is the U.S. government's official web portal to all federal, state and local government web resources and services.